Volver al catálogo

FENGYUN 1C DEB

ActivoPO
NORAD 30232·DEBRIS·🇨🇳 China

Lanzado May 10, 1999 desde Taiyuan Satellite Launch Center

Loading…

Próximos Pases (próximas 24 horas)

TLE

ActualizadoSource: Space-Track

Época: Sep 14, 2026, 01:55 UTC

1 30232U 99025WR  26257.08053628  .00001752  00000-0  29484-3 0  9994
2 30232  98.6685 117.5130 0130616 215.2203 299.8389 14.65560384 37790

Sigue FENGYUN 1C DEB en tiempo real con AllMySat

Download on the App Store